Regional Weather Roundup
Issued by NWS Little Rock, AR

Home | Current Version | Previous Version | Graphics & Text | Print | Product List | Glossary On
Versions: 1 2 3 4 5 6 7 8 9 10 11 12 13 14 15 16 17 18 19 20 21 22 23 24 25 26 27 28 29 30 31 32 33 34 35 36 37 38 39 40 41 42 43 44 45 46 47 48 49 50
000
ASUS44 KLZK 220605
RWRLZK

WEATHER ROUNDUP FOR ARKANSAS
NATIONAL WEATHER SERVICE LITTLE ROCK AR
1200 AM CST SAT NOV 22 2014

NOTE: "FAIR" INDICATES FEW OR NO CLOUDS BELOW 12,000 FEET WITH NO
SIGNIFICANT WEATHER AND/OR OBSTRUCTIONS TO VISIBILITY.

ARZ001-003-010-029-220700-
NORTHWEST ARKANSAS

CITY           SKY/WX    TMP DP  RH WIND       PRES   REMARKS
FAYETTEVILLE   PTCLDY    52  48  86 S15G23    30.15S
6HR MIN TEMP:  52; 6HR MAX TEMP:  53;

FORT SMITH     CLOUDY    50  46  86 E10       30.19R
6HR MIN TEMP:  48; 6HR MAX TEMP:  51;

HARRISON       CLOUDY    44  44 100 SE8       30.18F FOG
6HR MIN TEMP:  41; 6HR MAX TEMP:  44;

BENTONVILLE    CLOUDY    54  46  76 S10G20    30.15F
6HR MIN TEMP:  52; 6HR MAX TEMP:  55;

ROGERS         CLOUDY    55  48  77 S14G20    30.15S
6HR MIN TEMP:  52; 6HR MAX TEMP:  55;

SILOAM SPGS    CLOUDY    54  45  71 S14G22    30.15S
6HR MIN TEMP:  52; 6HR MAX TEMP:  54;

HIGHFILL       CLOUDY    54  49  83 S10       30.13F
6HR MIN TEMP:  52; 6HR MAX TEMP:  55;

$$

ARZ004-005-016-220700-
NORTH CENTRAL ARKANSAS

CITY           SKY/WX    TMP DP  RH WIND       PRES   REMARKS
BATESVILLE     CLOUDY    41  39  93 CALM      30.26S VSB 1/4
6HR MIN TEMP:  41; 6HR MAX TEMP:  43; 6HR PCP:  0.02;

FLIPPIN        CLOUDY    43  37  81 CALM      30.22F
6HR MIN TEMP:  41; 6HR MAX TEMP:  43;

MTN HOME       CLOUDY    42  42 100 SE6       30.21F FOG
6HR MIN TEMP:  40; 6HR MAX TEMP:  42;

$$

ARZ040-041-220700-
WEST CENTRAL ARKANSAS

CITY           SKY/WX    TMP DP  RH WIND       PRES   REMARKS
MENA           CLOUDY    59  52  77 SE5       30.20R
MOUNT IDA      HVY RAIN  52  51  97 NE3       30.19S FOG
6HR MIN TEMP:  50; 6HR MAX TEMP:  53; 6HR PCP:  0.03;

$$

ARZ009-017-025-026-028-220700-
NORTHEAST ARKANSAS

CITY           SKY/WX    TMP DP  RH WIND       PRES   REMARKS
CORNING        CLOUDY    41  41 100 N3        30.27S FOG
JONESBORO      CLOUDY    45  41  86 CALM      30.26F
6HR MIN TEMP:  43; 6HR MAX TEMP:  46; 6HR PCP:  0.01;

NEWPORT        CLOUDY    42  42 100 CALM      30.27S FOG
6HR MIN TEMP:  41; 6HR MAX TEMP:  44; 6HR PCP:  0.01;

WALNUT RIDGE   MOCLDY    41  37  87 N3        30.26S
6HR MIN TEMP:  41; 6HR MAX TEMP:  43;

BLYTHEVILLE    LGT RAIN  56  42  59 SW7       30.29R
6HR MIN TEMP:  47; 6HR MAX TEMP:  59; 6HR PCP: TRACE;

$$

ARZ022-023-033-042-044-220700-
CENTRAL ARKANSAS

CITY           SKY/WX    TMP DP  RH WIND       PRES   REMARKS
LITTLE ROCK    MOCLDY    45  43  93 CALM      30.26R FOG
6HR MIN TEMP:  45; 6HR MAX TEMP:  49; 6HR PCP:  0.01;

N LITTLE ROCK  MOCLDY    49  48  99 SE7       30.26R
6HR MIN TEMP:  46; 6HR MAX TEMP:  49;

JACKSONVILLE   FOG       45  45 100 NE2       30.24F VSB 3/4
SEARCY         CLOUDY    44  43  96 CALM      30.26F FOG
6HR MIN TEMP:  44; 6HR MAX TEMP:  46; 6HR PCP:  0.05;

HOT SPRINGS    MOCLDY    50  48  93 E7        30.23S FOG
6HR MIN TEMP:  50; 6HR MAX TEMP:  51; 6HR PCP: TRACE;

RUSSELLVILLE   CLOUDY    48  46  93 VRB3      30.22F FOG
6HR MIN TEMP:  47; 6HR MAX TEMP:  49; 6HR PCP:  0.02;

CLINTON        FOG       43  43 100 CALM      30.25F VSB 3/4
$$

ARZ036-220700-
EAST ARKANSAS

CITY           SKY/WX    TMP DP  RH WIND       PRES   REMARKS
WEST MEMPHIS   LGT RAIN  51  49  92 S3        30.27S
6HR MIN TEMP:  50; 6HR MAX TEMP:  53; 6HR PCP: TRACE;

$$

ARZ050-053-066-070-073-220700-
SOUTHWEST ARKANSAS

CITY           SKY/WX    TMP DP  RH WIND       PRES   REMARKS
ARKADELPHIA    CLOUDY    53  53 100 CALM      30.25R FOG
6HR MIN TEMP:  52; 6HR MAX TEMP:  53; 6HR PCP: TRACE;

CAMDEN         MOCLDY    55  50  82 NE6       30.24S
TEXARKANA      LGT RAIN  55  52  89 SE8       30.20S
6HR MIN TEMP:  55; 6HR MAX TEMP:  56; 6HR PCP:  0.01;

EL DORADO      CLOUDY    58  49  72 SE9       30.23S
6HR MIN TEMP:  55; 6HR MAX TEMP:  58; 6HR PCP: TRACE;

DE QUEEN       CLOUDY    55  54  96 E3        30.18F FOG
6HR MIN TEMP:  55; 6HR MAX TEMP:  57; 6HR PCP: TRACE;

$$

ARZ056-057-069-220700-
SOUTHEAST ARKANSAS

CITY           SKY/WX    TMP DP  RH WIND       PRES   REMARKS
PINE BLUFF     CLOUDY    50  48  93 E5        30.25S FOG
6HR MIN TEMP:  49; 6HR MAX TEMP:  53; 6HR PCP:  0.04;

STUTTGART      CLOUDY    52  46  82 SE7       30.25F
6HR MIN TEMP:  48; 6HR MAX TEMP:  52;

MONTICELLO     CLOUDY    56  48  74 S5        30.26R
6HR MIN TEMP:  55; 6HR MAX TEMP:  57;


$$





USA.gov is the U.S. government's official web portal to all federal, state and local government web resources and services.